Time,TemperatureF,DewpointF,PressureIn,WindDirection,WindDirectionDegrees,WindSpeedMPH,WindSpeedGustMPH,Humidity,HourlyPrecipIn,Conditions,Clouds,dailyrainin,SolarRadiationWatts/m^2,SoftwareType,DateUTC
2013-06-11 00:00:00,73.9,66.3,30.06,East,90,0.0,5.8,77,0.00,SCT,BKN,0.00,0.0,WeatherDisplay:10.37,2013-06-11 10:00:00,
2013-06-11 00:05:00,73.9,66.6,30.06,South,180,3.8,4.6,78,0.00,SCT,BKN,0.00,0.0,WeatherDisplay:10.37,2013-06-11 10:05:00,
2013-06-11 00:10:00,73.9,66.6,30.06,NNE,22,0.0,5.8,78,0.00,SCT,BKN,0.00,0.0,WeatherDisplay:10.37,2013-06-11 10:10:00,
2013-06-11 00:15:00,73.8,66.1,30.06,NE,45,2.0,3.5,77,0.00,SCT,BKN,0.00,0.0,WeatherDisplay:10.37,2013-06-11 10:15:00,
2013-06-11 00:20:00,73.8,66.1,30.06,ENE,68,3.8,4.6,77,0.00,SCT,BKN,0.00,0.0,WeatherDisplay:10.37,2013-06-11 10:20:00,
2013-06-11 00:25:00,73.6,65.9,30.06,NE,45,1.2,4.6,77,0.00,SCT,BKN,0.00,0.0,WeatherDisplay:10.37,2013-06-11 10:25:00,
2013-06-11 00:30:00,73.6,65.9,30.06,SW,225,2.2,3.5,77,0.00,SCT,BKN,0.00,0.0,WeatherDisplay:10.37,2013-06-11 10:30:00,
2013-06-11 00:35:00,73.4,65.7,30.06,East,90,2.4,5.8,77,0.00,SCT,BKN,0.00,0.0,WeatherDisplay:10.37,2013-06-11 10:35:00,
2013-06-11 00:40:00,73.4,65.4,30.06,NNE,22,4.9,6.9,76,0.00,SCT,BKN,0.00,0.0,WeatherDisplay:10.37,2013-06-11 10:40:00,
2013-06-11 00:45:00,73.4,65.4,30.06,North,0,2.0,6.0,76,0.00,SCT,BKN,0.00,0.0,WeatherDisplay:10.37,2013-06-11 10:45:00,
2013-06-11 00:50:00,73.6,65.5,30.06,NE,45,1.6,3.5,76,0.00,SCT,BKN,0.00,0.0,WeatherDisplay:10.37,2013-06-11 10:50:00,
2013-06-11 00:55:00,73.6,66.3,30.06,NE,45,2.6,4.6,78,0.00,SCT,BKN,0.00,0.0,WeatherDisplay:10.37,2013-06-11 10:55:00,
2013-06-11 01:00:00,73.6,66.3,30.03,ESE,112,2.0,3.5,78,0.00,SCT,BKN,0.00,0.0,WeatherDisplay:10.37,2013-06-11 11:00:00,
2013-06-11 01:05:00,73.6,65.9,30.03,East,90,4.5,5.8,77,0.00,SCT,BKN,0.00,0.0,WeatherDisplay:10.37,2013-06-11 11:05:00,
2013-06-11 01:10:00,73.6,65.9,30.03,East,90,2.0,2.9,77,0.00,SCT,BKN,0.00,0.0,WeatherDisplay:10.37,2013-06-11 11:10:00,
2013-06-11 01:15:00,73.8,66.1,30.03,ENE,68,3.8,6.4,77,0.00,SCT,BKN,0.00,0.0,WeatherDisplay:10.37,2013-06-11 11:15:00,
2013-06-11 01:20:00,73.8,65.3,30.03,NE,45,0.0,1.2,75,0.00,SCT,BKN,0.00,0.0,WeatherDisplay:10.37,2013-06-11 11:20:00,
2013-06-11 01:25:00,73.8,65.7,30.03,ENE,68,2.6,2.6,76,0.00,SCT,BKN,0.00,0.0,WeatherDisplay:10.37,2013-06-11 11:25:00,
2013-06-11 01:30:00,73.6,65.5,30.06,NW,315,0.9,3.1,76,0.00,SCT,BKN,0.00,0.0,WeatherDisplay:10.37,2013-06-11 11:30:00,
2013-06-11 01:35:00,73.6,66.3,30.06,ENE,68,2.4,3.5,78,0.00,SCT,BKN,0.00,0.0,WeatherDisplay:10.37,2013-06-11 11:35:00,
2013-06-11 01:40:00,73.2,66.3,30.06,ESE,112,3.1,4.6,79,0.00,SCT,BKN,0.00,0.0,WeatherDisplay:10.37,2013-06-11 11:40:00,
2013-06-11 01:45:00,73.2,65.9,30.06,NE,45,2.0,2.9,78,0.00,SCT,BKN,0.00,0.0,WeatherDisplay:10.37,2013-06-11 11:45:00,
2013-06-11 01:50:00,73.2,65.9,30.06,NNE,22,0.9,3.8,78,0.00,SCT,BKN,0.00,0.0,WeatherDisplay:10.37,2013-06-11 11:50:00,
2013-06-11 01:55:00,73.2,66.3,30.06,NE,45,1.4,3.5,79,0.00,SCT,BKN,0.00,0.0,WeatherDisplay:10.37,2013-06-11 11:55:00,
2013-06-11 02:00:00,73.2,66.7,30.06,NW,315,2.4,3.1,80,0.00,SCT,BKN,0.00,0.0,WeatherDisplay:10.37,2013-06-11 12:00:00,
2013-06-11 02:05:00,73.2,65.9,30.06,NNE,22,2.4,3.5,78,0.00,SCT,BKN,0.00,0.0,WeatherDisplay:10.37,2013-06-11 12:05:00,
2013-06-11 02:10:00,73.2,65.9,30.06,NE,45,1.2,2.3,78,0.00,SCT,BKN,0.00,0.0,WeatherDisplay:10.37,2013-06-11 12:10:00,
2013-06-11 02:15:00,73.2,65.6,30.06,WNW,292,1.4,4.0,77,0.00,SCT,BKN,0.00,0.0,WeatherDisplay:10.37,2013-06-11 12:15:00,
2013-06-11 02:20:00,73.2,65.6,30.06,NNE,22,1.2,4.7,77,0.00,SCT,BKN,0.00,0.0,WeatherDisplay:10.37,2013-06-11 12:20:00,
2013-06-11 02:25:00,73.4,65.7,30.06,East,90,2.0,3.5,77,0.00,SCT,BKN,0.00,0.0,WeatherDisplay:10.37,2013-06-11 12:25:00,
2013-06-11 02:30:00,73.4,66.1,30.06,NE,45,2.0,3.5,78,0.00,SCT,BKN,0.00,0.0,WeatherDisplay:10.37,2013-06-11 12:30:00,
2013-06-11 02:35:00,73.4,66.1,30.06,North,0,2.0,3.5,78,0.00,SCT,BKN,0.00,0.0,WeatherDisplay:10.37,2013-06-11 12:35:00,
2013-06-11 02:40:00,73.4,66.1,30.06,ESE,112,0.9,6.2,78,0.00,SCT,BKN,0.00,0.0,WeatherDisplay:10.37,2013-06-11 12:40:00,
2013-06-11 02:45:00,73.6,66.3,30.03,NE,45,2.9,6.4,78,0.00,SCT,BKN,0.00,0.0,WeatherDisplay:10.37,2013-06-11 12:45:00,
2013-06-11 02:50:00,73.6,66.3,30.03,NE,45,2.0,4.6,78,0.00,SCT,BKN,0.00,0.0,WeatherDisplay:10.37,2013-06-11 12:50:00,
2013-06-11 02:55:00,73.6,65.9,30.03,NW,315,1.2,3.5,77,0.00,SCT,BKN,0.00,0.0,WeatherDisplay:10.37,2013-06-11 12:55:00,
2013-06-11 03:00:00,73.8,66.5,30.03,NW,315,2.9,4.6,78,0.00,SCT,BKN,0.00,0.0,WeatherDisplay:10.37,2013-06-11 13:00:00,
2013-06-11 03:05:00,73.6,66.3,30.03,East,90,3.6,4.6,78,0.00,SCT,BKN,0.00,0.0,WeatherDisplay:10.37,2013-06-11 13:05:00,
2013-06-11 03:10:00,73.6,66.3,30.03,ESE,112,2.2,4.3,78,0.00,SCT,BKN,0.00,0.0,WeatherDisplay:10.37,2013-06-11 13:10:00,
2013-06-11 03:15:00,73.6,66.3,30.03,East,90,2.6,4.6,78,0.00,SCT,BKN,0.00,0.0,WeatherDisplay:10.37,2013-06-11 13:15:00,
2013-06-11 03:20:00,73.6,65.9,30.03,North,0,2.0,6.9,77,0.00,SCT,BKN,0.00,0.0,WeatherDisplay:10.37,2013-06-11 13:20:00,
2013-06-11 03:25:00,73.6,65.9,30.03,North,0,3.8,8.1,77,0.00,SCT,BKN,0.00,0.0,WeatherDisplay:10.37,2013-06-11 13:25:00,
2013-06-11 03:30:00,73.6,65.9,30.03,NE,45,1.6,3.6,77,0.00,SCT,BKN,0.00,0.0,WeatherDisplay:10.37,2013-06-11 13:30:00,
2013-06-11 03:35:00,73.6,65.9,30.03,North,0,2.4,3.5,77,0.00,SCT,BKN,0.00,0.0,WeatherDisplay:10.37,2013-06-11 13:35:00,
2013-06-11 03:40:00,73.6,65.9,30.03,East,90,2.9,3.5,77,0.00,SCT,BKN,0.00,0.0,WeatherDisplay:10.37,2013-06-11 13:40:00,
2013-06-11 03:45:00,73.6,65.9,30.03,NE,45,0.9,2.3,77,0.00,SCT,BKN,0.00,0.0,WeatherDisplay:10.37,2013-06-11 13:45:00,
2013-06-11 03:50:00,73.6,65.9,30.03,NE,45,2.6,4.3,77,0.00,SCT,BKN,0.00,0.0,WeatherDisplay:10.37,2013-06-11 13:50:00,
2013-06-11 03:55:00,73.6,65.9,30.03,East,90,2.9,4.6,77,0.00,SCT,BKN,0.00,0.0,WeatherDisplay:10.37,2013-06-11 13:55:00,
2013-06-11 04:00:00,73.6,65.9,30.03,NE,45,1.6,3.1,77,0.00,SCT,BKN,0.00,0.0,WeatherDisplay:10.37,2013-06-11 14:00:00,
2013-06-11 04:05:00,73.4,66.1,30.03,ENE,68,2.4,3.5,78,0.00,SCT,BKN,0.00,0.0,WeatherDisplay:10.37,2013-06-11 14:05:00,
2013-06-11 04:10:00,73.2,66.3,30.03,East,90,2.0,2.3,79,0.00,SCT,BKN,0.00,0.0,WeatherDisplay:10.37,2013-06-11 14:10:00,
2013-06-11 04:15:00,73.2,65.9,30.03,ENE,68,0.9,3.5,78,0.00,SCT,BKN,0.00,0.0,WeatherDisplay:10.37,2013-06-11 14:15:00,
2013-06-11 04:20:00,73.2,66.3,30.03,East,90,2.9,3.5,79,0.00,SCT,BKN,0.00,0.0,WeatherDisplay:10.37,2013-06-11 14:20:00,
2013-06-11 04:25:00,73.2,65.9,30.03,ENE,68,2.4,4.6,78,0.00,SCT,BKN,0.00,0.0,WeatherDisplay:10.37,2013-06-11 14:25:00,
2013-06-11 04:30:00,73.4,66.1,30.03,East,90,1.6,4.0,78,0.00,SCT,BKN,0.00,0.0,WeatherDisplay:10.37,2013-06-11 14:30:00,
2013-06-11 04:35:00,73.4,65.7,30.03,North,0,3.3,6.0,77,0.00,SCT,BKN,0.00,0.0,WeatherDisplay:10.37,2013-06-11 14:35:00,
2013-06-11 04:40:00,73.4,65.7,30.03,ENE,68,3.6,5.8,77,0.00,SCT,BKN,0.00,0.0,WeatherDisplay:10.37,2013-06-11 14:40:00,
2013-06-11 04:45:00,73.4,65.7,30.03,East,90,3.1,5.8,77,0.00,SCT,BKN,0.00,0.0,WeatherDisplay:10.37,2013-06-11 14:45:00,
2013-06-11 04:50:00,73.4,65.7,30.03,NNE,22,2.4,3.8,77,0.00,SCT,BKN,0.00,0.0,WeatherDisplay:10.37,2013-06-11 14:50:00,
2013-06-11 04:55:00,73.2,65.6,30.03,North,0,2.0,3.5,77,0.00,SCT,BKN,0.00,0.0,WeatherDisplay:10.37,2013-06-11 14:55:00,
2013-06-11 05:00:00,73.2,65.2,30.03,ESE,112,3.6,4.6,76,0.00,SCT,BKN,0.00,0.0,WeatherDisplay:10.37,2013-06-11 15:00:00,
2013-06-11 05:05:00,73.4,65.4,30.03,East,90,4.7,6.9,76,0.00,SCT,BKN,0.00,0.0,WeatherDisplay:10.37,2013-06-11 15:05:00,
2013-06-11 05:10:00,73.2,65.6,30.03,NE,45,2.2,4.6,77,0.00,SCT,BKN,0.00,0.0,WeatherDisplay:10.37,2013-06-11 15:10:00,
2013-06-11 05:15:00,73.2,64.8,30.06,East,90,4.0,5.8,75,0.00,SCT,BKN,0.00,0.0,WeatherDisplay:10.37,2013-06-11 15:15:00,
2013-06-11 05:20:00,73.4,65.4,30.06,ENE,68,4.3,4.6,76,0.00,SCT,BKN,0.00,0.0,WeatherDisplay:10.37,2013-06-11 15:20:00,
2013-06-11 05:25:00,73.4,65.4,30.06,ENE,68,4.5,5.8,76,0.00,SCT,BKN,0.00,0.0,WeatherDisplay:10.37,2013-06-11 15:25:00,
2013-06-11 05:30:00,73.4,65.4,30.06,NE,45,4.0,4.6,76,0.00,SCT,BKN,0.00,0.0,WeatherDisplay:10.37,2013-06-11 15:30:00,
2013-06-11 05:35:00,73.2,65.6,30.06,NNE,22,4.3,5.8,77,0.00,SCT,BKN,0.00,0.0,WeatherDisplay:10.37,2013-06-11 15:35:00,
2013-06-11 05:40:00,73.2,65.2,30.06,ENE,68,2.4,5.8,76,0.00,SCT,BKN,0.00,0.0,WeatherDisplay:10.37,2013-06-11 15:40:00,
2013-06-11 05:45:00,73.2,65.2,30.06,ENE,68,4.0,5.8,76,0.00,SCT,BKN,0.00,0.0,WeatherDisplay:10.37,2013-06-11 15:45:00,
2013-06-11 05:50:00,73.4,64.6,30.06,East,90,3.1,5.8,74,0.00,SCT,BKN,0.00,0.0,WeatherDisplay:10.37,2013-06-11 15:50:00,
2013-06-11 05:55:00,73.4,65.4,30.06,NE,45,4.0,5.8,76,0.00,SCT,BKN,0.00,0.0,WeatherDisplay:10.37,2013-06-11 15:55:00,
2013-06-11 06:00:00,73.4,65.4,30.06,ENE,68,4.0,4.6,76,0.00,SCT,BKN,0.00,0.0,WeatherDisplay:10.37,2013-06-11 16:00:00,
2013-06-11 06:05:00,73.4,65.4,30.06,East,90,3.8,4.6,76,0.00,SCT,BKN,0.00,0.0,WeatherDisplay:10.37,2013-06-11 16:05:00,
2013-06-11 06:10:00,73.4,64.6,30.06,NE,45,3.1,5.8,74,0.00,SCT,BKN,0.00,0.0,WeatherDisplay:10.37,2013-06-11 16:10:00,
2013-06-11 06:15:00,73.6,64.8,30.06,NNE,22,4.3,6.9,74,0.00,SCT,BKN,0.00,0.0,WeatherDisplay:10.37,2013-06-11 16:15:00,
2013-06-11 06:20:00,73.6,64.8,30.06,North,0,3.6,5.8,74,0.00,SCT,BKN,0.00,0.0,WeatherDisplay:10.37,2013-06-11 16:20:00,
2013-06-11 06:25:00,73.8,65.3,30.06,NE,45,4.0,6.9,75,0.00,SCT,BKN,0.00,0.0,WeatherDisplay:10.37,2013-06-11 16:25:00,
2013-06-11 06:30:00,73.8,65.7,30.06,ENE,68,4.0,5.8,76,0.00,SCT,BKN,0.00,0.0,WeatherDisplay:10.37,2013-06-11 16:30:00,
2013-06-11 06:35:00,73.8,65.7,30.06,NE,45,3.6,5.8,76,0.00,SCT,BKN,0.00,0.0,WeatherDisplay:10.37,2013-06-11 16:35:00,
2013-06-11 06:40:00,73.8,65.3,30.06,NE,45,2.9,3.5,75,0.00,SCT,BKN,0.00,0.0,WeatherDisplay:10.37,2013-06-11 16:40:00,
2013-06-11 06:45:00,73.9,65.1,30.06,NE,45,4.5,8.1,74,0.00,SCT,BKN,0.00,0.0,WeatherDisplay:10.37,2013-06-11 16:45:00,
2013-06-11 06:50:00,74.1,65.7,30.06,NE,45,1.2,3.5,75,0.00,SCT,BKN,0.00,0.0,WeatherDisplay:10.37,2013-06-11 16:50:00,
2013-06-11 06:55:00,74.1,66.1,30.06,North,0,1.4,5.8,76,0.00,SCT,BKN,0.00,0.0,WeatherDisplay:10.37,2013-06-11 16:55:00,
2013-06-11 07:00:00,74.3,65.9,30.06,East,90,2.2,5.8,75,0.00,SCT,BKN,0.00,0.0,WeatherDisplay:10.37,2013-06-11 17:00:00,
2013-06-11 07:05:00,74.7,65.8,30.06,NNE,22,2.0,3.6,74,0.00,SCT,BKN,0.00,0.0,WeatherDisplay:10.37,2013-06-11 17:05:00,
2013-06-11 07:10:00,74.7,65.8,30.06,NNE,22,2.0,4.0,74,0.00,SCT,BKN,0.00,0.0,WeatherDisplay:10.37,2013-06-11 17:10:00,
2013-06-11 07:15:00,74.7,65.4,30.06,ENE,68,2.4,4.6,73,0.00,SCT,BKN,0.00,0.0,WeatherDisplay:10.37,2013-06-11 17:15:00,
2013-06-11 07:20:00,74.8,65.6,30.06,NE,45,1.6,3.5,73,0.00,SCT,BKN,0.00,0.0,WeatherDisplay:10.37,2013-06-11 17:20:00,
2013-06-11 07:25:00,74.8,65.6,30.06,ESE,112,2.0,2.3,73,0.00,SCT,BKN,0.00,0.0,WeatherDisplay:10.37,2013-06-11 17:25:00,
2013-06-11 07:30:00,74.8,66.0,30.03,ESE,112,1.2,1.2,74,0.00,SCT,BKN,0.00,0.0,WeatherDisplay:10.37,2013-06-11 17:30:00,
2013-06-11 07:35:00,74.7,65.4,30.03,NNW,338,3.6,4.6,73,0.00,SCT,BKN,0.00,0.0,WeatherDisplay:10.37,2013-06-11 17:35:00,
2013-06-11 07:40:00,74.8,66.0,30.03,NNE,22,2.6,4.0,74,0.00,SCT,BKN,0.00,0.0,WeatherDisplay:10.37,2013-06-11 17:40:00,
2013-06-11 07:45:00,74.7,65.8,30.06,East,90,0.0,1.2,74,0.00,SCT,BKN,0.00,0.0,WeatherDisplay:10.37,2013-06-11 17:45:00,
2013-06-11 07:50:00,74.8,66.0,30.06,ENE,68,2.9,4.6,74,0.00,SCT,BKN,0.00,0.0,WeatherDisplay:10.37,2013-06-11 17:50:00,
2013-06-11 07:55:00,74.8,66.0,30.06,SW,225,3.6,5.8,74,0.00,SCT,BKN,0.00,0.0,WeatherDisplay:10.37,2013-06-11 17:55:00,
2013-06-11 08:00:00,75.2,66.3,30.06,SE,135,2.0,2.3,74,0.00,SCT,BKN,0.00,0.0,WeatherDisplay:10.37,2013-06-11 18:00:00,
2013-06-11 08:05:00,75.2,65.9,30.06,NNW,338,3.1,4.6,73,0.00,SCT,BKN,0.00,125.0,WeatherDisplay:10.37,2013-06-11 18:05:00,
2013-06-11 08:10:00,75.4,65.7,30.06,North,0,4.3,5.8,72,0.00,SCT,BKN,0.00,0.0,WeatherDisplay:10.37,2013-06-11 18:10:00,
2013-06-11 08:15:00,75.6,65.5,30.06,NW,315,4.3,6.9,71,0.00,SCT,BKN,0.00,125.0,WeatherDisplay:10.37,2013-06-11 18:15:00,
2013-06-11 08:20:00,75.7,65.3,30.06,NE,45,2.0,3.8,70,0.00,SCT,BKN,0.00,125.0,WeatherDisplay:10.37,2013-06-11 18:20:00,
2013-06-11 08:25:00,75.9,65.4,30.06,NNE,22,2.9,3.5,70,0.00,SCT,BKN,0.00,125.0,WeatherDisplay:10.37,2013-06-11 18:25:00,
2013-06-11 08:30:00,76.1,65.6,30.06,East,90,2.2,3.5,70,0.00,SCT,BKN,0.00,125.0,WeatherDisplay:10.37,2013-06-11 18:30:00,
2013-06-11 08:35:00,75.9,65.4,30.06,SW,225,3.3,4.6,70,0.00,SCT,BKN,0.00,125.0,WeatherDisplay:10.37,2013-06-11 18:35:00,
2013-06-11 08:40:00,75.9,65.4,30.06,ESE,112,2.9,3.5,70,0.00,SCT,BKN,0.00,0.0,WeatherDisplay:10.37,2013-06-11 18:40:00,
2013-06-11 08:45:00,76.6,65.7,30.06,NNE,22,4.3,5.8,69,0.00,SCT,BKN,0.00,125.0,WeatherDisplay:10.37,2013-06-11 18:45:00,
2013-06-11 08:50:00,77.0,66.0,30.06,NNE,22,1.4,2.9,69,0.00,SCT,BKN,0.00,125.0,WeatherDisplay:10.37,2013-06-11 18:50:00,
2013-06-11 08:55:00,76.6,66.1,30.06,ENE,68,2.9,4.6,70,0.00,SCT,BKN,0.00,125.0,WeatherDisplay:10.37,2013-06-11 18:55:00,
2013-06-11 09:00:00,77.0,66.5,30.06,SE,135,2.2,3.3,70,0.00,SCT,BKN,0.00,125.0,WeatherDisplay:10.37,2013-06-11 19:00:00,
2013-06-11 09:05:00,77.2,66.2,30.06,NNE,22,3.1,5.8,69,0.00,SCT,BKN,0.00,250.0,WeatherDisplay:10.37,2013-06-11 19:05:00,
2013-06-11 09:10:00,77.7,65.5,30.06,NE,45,5.4,5.8,66,0.00,SCT,BKN,0.00,250.0,WeatherDisplay:10.37,2013-06-11 19:10:00,
2013-06-11 09:15:00,78.3,66.4,30.06,SE,135,0.0,3.5,67,0.00,SCT,BKN,0.00,250.0,WeatherDisplay:10.37,2013-06-11 19:15:00,
2013-06-11 09:20:00,78.6,66.3,30.06,NNW,338,2.9,4.6,66,0.00,SCT,BKN,0.00,250.0,WeatherDisplay:10.37,2013-06-11 19:20:00,
2013-06-11 09:25:00,78.6,66.3,30.06,NNE,22,2.4,3.6,66,0.00,SCT,BKN,0.00,125.0,WeatherDisplay:10.37,2013-06-11 19:25:00,
2013-06-11 09:30:00,77.5,65.3,30.06,West,270,1.6,5.9,66,0.00,SCT,BKN,0.00,0.0,WeatherDisplay:10.37,2013-06-11 19:30:00,
2013-06-11 09:35:00,76.8,65.0,30.06,ESE,112,1.2,2.3,67,0.00,SCT,BKN,0.00,0.0,WeatherDisplay:10.37,2013-06-11 19:35:00,
2013-06-11 09:40:00,76.3,64.1,30.06,ENE,68,2.0,3.5,66,0.00,SCT,BKN,0.00,0.0,WeatherDisplay:10.37,2013-06-11 19:40:00,
2013-06-11 09:45:00,75.9,64.6,30.06,NNE,22,3.3,3.6,68,0.00,SCT,BKN,0.00,0.0,WeatherDisplay:10.37,2013-06-11 19:45:00,
2013-06-11 09:50:00,75.6,64.7,30.06,ENE,68,2.2,7.1,69,0.00,SCT,BKN,0.00,125.0,WeatherDisplay:10.37,2013-06-11 19:50:00,
2013-06-11 09:55:00,75.4,64.9,30.06,NW,315,3.3,5.8,70,0.00,SCT,BKN,0.00,125.0,WeatherDisplay:10.37,2013-06-11 19:55:00,
2013-06-11 10:00:00,75.6,65.1,30.06,ENE,68,2.9,3.5,70,0.00,SCT,BKN,0.00,125.0,WeatherDisplay:10.37,2013-06-11 20:00:00,
2013-06-11 10:05:00,76.1,65.6,30.06,SSW,202,2.0,2.3,70,0.00,SCT,BKN,0.00,125.0,WeatherDisplay:10.37,2013-06-11 20:05:00,
2013-06-11 10:10:00,75.9,65.0,30.06,NW,315,2.2,4.6,69,0.00,SCT,BKN,0.00,0.0,WeatherDisplay:10.37,2013-06-11 20:10:00,
2013-06-11 10:15:00,75.7,65.7,30.06,NW,315,2.0,3.5,71,0.00,SCT,BKN,0.00,125.0,WeatherDisplay:10.37,2013-06-11 20:15:00,
2013-06-11 10:20:00,75.4,65.3,30.06,NW,315,4.3,6.9,71,0.00,SCT,BKN,0.00,125.0,WeatherDisplay:10.37,2013-06-11 20:20:00,
2013-06-11 10:25:00,75.9,65.8,30.06,ENE,68,2.4,4.6,71,0.00,SCT,BKN,0.00,125.0,WeatherDisplay:10.37,2013-06-11 20:25:00,
2013-06-11 10:30:00,76.6,66.1,30.03,ENE,68,2.0,3.8,70,0.00,SCT,BKN,0.00,250.0,WeatherDisplay:10.37,2013-06-11 20:30:00,
2013-06-11 10:35:00,77.0,66.0,30.03,West,270,2.0,3.3,69,0.00,SCT,BKN,0.00,250.0,WeatherDisplay:10.37,2013-06-11 20:35:00,
2013-06-11 10:40:00,77.9,66.5,30.03,NNE,22,2.2,2.9,68,0.00,SCT,BKN,0.00,250.0,WeatherDisplay:10.37,2013-06-11 20:40:00,
2013-06-11 10:45:00,78.3,66.0,30.06,NNW,338,3.1,5.8,66,0.00,SCT,BKN,0.00,250.0,WeatherDisplay:10.37,2013-06-11 20:45:00,
2013-06-11 10:50:00,78.6,65.9,30.06,NNE,22,4.0,4.6,65,0.00,SCT,BKN,0.00,250.0,WeatherDisplay:10.37,2013-06-11 20:50:00,
2013-06-11 10:55:00,79.3,65.6,30.06,WNW,292,3.1,4.7,63,0.00,SCT,BKN,0.00,250.0,WeatherDisplay:10.37,2013-06-11 20:55:00,
2013-06-11 11:00:00,79.9,66.2,30.06,East,90,2.6,4.6,63,0.00,SCT,BKN,0.00,250.0,WeatherDisplay:10.37,2013-06-11 21:00:00,
2013-06-11 11:05:00,79.9,66.2,30.06,South,180,1.6,8.1,63,0.00,SCT,BKN,0.00,250.0,WeatherDisplay:10.37,2013-06-11 21:05:00,
2013-06-11 11:10:00,79.9,65.2,30.06,NNE,22,4.9,6.2,61,0.00,SCT,BKN,0.00,250.0,WeatherDisplay:10.37,2013-06-11 21:10:00,
2013-06-11 11:15:00,80.2,66.5,30.06,SE,135,4.5,9.2,63,0.00,SCT,BKN,0.00,375.0,WeatherDisplay:10.37,2013-06-11 21:15:00,
2013-06-11 11:20:00,81.0,66.2,30.06,North,0,2.6,4.6,61,0.00,SCT,BKN,0.00,250.0,WeatherDisplay:10.37,2013-06-11 21:20:00,
2013-06-11 11:25:00,81.5,66.8,30.06,SW,225,2.6,4.6,61,0.00,SCT,BKN,0.00,500.0,WeatherDisplay:10.37,2013-06-11 21:25:00,
2013-06-11 11:30:00,82.0,67.3,30.06,NE,45,2.2,4.7,61,0.00,SCT,BKN,0.00,375.0,WeatherDisplay:10.37,2013-06-11 21:30:00,
2013-06-11 11:35:00,82.2,66.5,30.06,SE,135,2.9,5.8,59,0.00,SCT,BKN,0.00,500.0,WeatherDisplay:10.37,2013-06-11 21:35:00,
2013-06-11 11:40:00,83.8,67.0,30.06,North,0,1.6,4.6,57,0.00,SCT,BKN,0.00,1500.0,WeatherDisplay:10.37,2013-06-11 21:40:00,
2013-06-11 11:45:00,83.8,66.5,30.03,NW,315,2.6,4.6,56,0.00,SCT,BKN,0.00,750.0,WeatherDisplay:10.37,2013-06-11 21:45:00,
2013-06-11 11:50:00,84.2,66.8,30.03,WNW,292,1.4,2.3,56,0.00,SCT,BKN,0.00,1500.0,WeatherDisplay:10.37,2013-06-11 21:50:00,
2013-06-11 11:55:00,84.6,66.6,30.03,ENE,68,2.6,4.6,55,0.00,SCT,BKN,0.00,1500.0,WeatherDisplay:10.37,2013-06-11 21:55:00,
2013-06-11 12:00:00,84.4,65.4,30.06,SW,225,4.7,6.9,53,0.00,SCT,BKN,0.00,1500.0,WeatherDisplay:10.37,2013-06-11 22:00:00,
2013-06-11 12:05:00,84.9,66.4,30.06,NNW,338,4.5,5.8,54,0.00,SCT,BKN,0.00,1250.0,WeatherDisplay:10.37,2013-06-11 22:05:00,
2013-06-11 12:10:00,85.8,67.3,30.06,NE,45,3.6,4.6,54,0.00,SCT,BKN,0.00,750.0,WeatherDisplay:10.37,2013-06-11 22:10:00,
2013-06-11 12:15:00,89.2,69.9,30.03,NW,315,1.4,5.8,53,0.00,SCT,BKN,0.00,1500.0,WeatherDisplay:10.37,2013-06-11 22:15:00,
2013-06-11 12:20:00,87.3,66.4,30.03,North,0,4.3,5.8,50,0.00,SCT,BKN,0.00,375.0,WeatherDisplay:10.37,2013-06-11 22:20:00,
2013-06-11 12:25:00,85.8,65.0,30.03,NNW,338,3.8,4.6,50,0.00,SCT,BKN,0.00,1375.0,WeatherDisplay:10.37,2013-06-11 22:25:00,
2013-06-11 12:30:00,87.1,66.2,30.06,NNE,22,2.9,3.8,50,0.00,SCT,BKN,0.00,1250.0,WeatherDisplay:10.37,2013-06-11 22:30:00,
2013-06-11 12:35:00,85.5,65.3,30.06,NNW,338,3.1,4.6,51,0.00,SCT,BKN,0.00,750.0,WeatherDisplay:10.37,2013-06-11 22:35:00,
2013-06-11 12:40:00,87.1,66.8,30.06,NNE,22,4.9,7.8,51,0.00,SCT,BKN,0.00,1500.0,WeatherDisplay:10.37,2013-06-11 22:40:00,
2013-06-11 12:45:00,88.3,66.8,30.06,NNE,22,2.0,4.6,49,0.00,SCT,BKN,0.00,1375.0,WeatherDisplay:10.37,2013-06-11 22:45:00,
2013-06-11 12:50:00,88.3,66.8,30.06,NNE,22,2.9,4.6,49,0.00,SCT,BKN,0.00,1500.0,WeatherDisplay:10.37,2013-06-11 22:50:00,
2013-06-11 12:55:00,89.1,66.2,30.06,West,270,3.3,4.6,47,0.00,SCT,BKN,0.00,1500.0,WeatherDisplay:10.37,2013-06-11 22:55:00,
2013-06-11 13:00:00,89.1,65.0,30.06,North,0,3.8,6.9,45,0.00,SCT,BKN,0.00,1125.0,WeatherDisplay:10.37,2013-06-11 23:00:00,
2013-06-11 13:05:00,89.2,65.8,30.06,NE,45,2.6,4.7,46,0.00,SCT,BKN,0.00,1500.0,WeatherDisplay:10.37,2013-06-11 23:05:00,
2013-06-11 13:10:00,90.0,65.8,30.06,ESE,112,3.8,5.8,45,0.00,SCT,BKN,0.00,1250.0,WeatherDisplay:10.37,2013-06-11 23:10:00,
2013-06-11 13:15:00,90.1,66.6,30.06,NW,315,0.9,2.3,46,0.00,SCT,BKN,0.00,750.0,WeatherDisplay:10.37,2013-06-11 23:15:00,
2013-06-11 13:20:00,88.0,65.2,30.06,NE,45,2.0,4.0,47,0.00,SCT,BKN,0.00,500.0,WeatherDisplay:10.37,2013-06-11 23:20:00,
2013-06-11 13:25:00,89.2,66.4,30.06,ESE,112,2.6,3.5,47,0.00,SCT,BKN,0.00,500.0,WeatherDisplay:10.37,2013-06-11 23:25:00,
2013-06-11 13:30:00,89.4,65.9,30.06,North,0,3.8,8.1,46,0.00,SCT,BKN,0.00,375.0,WeatherDisplay:10.37,2013-06-11 23:30:00,
2013-06-11 13:35:00,89.8,66.2,30.06,NE,45,2.0,3.5,46,0.00,SCT,BKN,0.00,375.0,WeatherDisplay:10.37,2013-06-11 23:35:00,
2013-06-11 13:40:00,88.7,64.6,30.06,NE,45,3.1,5.8,45,0.00,SCT,BKN,0.00,375.0,WeatherDisplay:10.37,2013-06-11 23:40:00,
2013-06-11 13:45:00,88.9,65.4,30.06,NNE,22,2.6,3.6,46,0.00,SCT,BKN,0.00,250.0,WeatherDisplay:10.37,2013-06-11 23:45:00,
2013-06-11 13:50:00,88.7,64.6,30.06,NW,315,4.0,5.8,45,0.00,SCT,BKN,0.00,375.0,WeatherDisplay:10.37,2013-06-11 23:50:00,
2013-06-11 13:55:00,89.2,64.5,30.06,NW,315,3.1,4.6,44,0.00,SCT,BKN,0.00,250.0,WeatherDisplay:10.37,2013-06-11 23:55:00,
2013-06-11 14:00:00,89.2,64.5,30.06,NNE,22,3.3,6.0,44,0.00,SCT,BKN,0.00,500.0,WeatherDisplay:10.37,2013-06-12 00:00:00,
2013-06-11 14:05:00,87.4,64.1,30.06,SW,225,4.3,5.8,46,0.00,SCT,BKN,0.00,1500.0,WeatherDisplay:10.37,2013-06-12 00:05:00,
2013-06-11 14:10:00,89.2,65.1,30.06,NW,315,2.9,4.6,45,0.00,SCT,BKN,0.00,1500.0,WeatherDisplay:10.37,2013-06-12 00:10:00,
2013-06-11 14:15:00,91.4,67.1,30.06,NNW,338,1.2,3.5,45,0.00,SCT,BKN,0.00,1500.0,WeatherDisplay:10.37,2013-06-12 00:15:00,
2013-06-11 14:22:00,90.9,64.6,30.06,North,0,3.8,3.8,42,0.00,SCT,BKN,0.00,1000.0,WeatherDisplay:10.37,2013-06-12 00:22:00,
2013-06-11 14:27:00,88.5,63.8,30.03,NNE,22,2.6,5.8,44,0.00,SCT,BKN,0.00,500.0,WeatherDisplay:10.37,2013-06-12 00:27:00,
2013-06-11 14:32:00,89.8,64.3,30.03,NNE,22,2.4,5.8,43,0.00,SCT,BKN,0.00,1250.0,WeatherDisplay:10.37,2013-06-12 00:32:00,
2013-06-11 14:37:00,89.2,63.8,30.03,NNW,338,2.9,3.5,43,0.00,SCT,BKN,0.00,1250.0,WeatherDisplay:10.37,2013-06-12 00:37:00,
2013-06-11 14:42:00,89.6,64.1,30.03,NNE,22,3.1,5.8,43,0.00,SCT,BKN,0.00,1125.0,WeatherDisplay:10.37,2013-06-12 00:42:00,
2013-06-11 14:53:00,90.9,64.6,30.03,NNE,22,4.3,6.2,42,0.00,SCT,BKN,0.00,1250.0,WeatherDisplay:10.37,2013-06-12 00:53:00,
2013-06-11 14:58:00,88.9,63.5,30.06,NE,45,4.5,7.6,43,0.00,SCT,BKN,0.00,1125.0,WeatherDisplay:10.37,2013-06-12 00:58:00,
2013-06-11 15:03:00,89.1,65.0,30.06,NE,45,0.0,3.5,45,0.00,SCT,BKN,0.00,500.0,WeatherDisplay:10.37,2013-06-12 01:03:00,
2013-06-11 15:08:00,87.6,63.7,30.06,ESE,112,1.4,2.4,45,0.00,SCT,BKN,0.00,250.0,WeatherDisplay:10.37,2013-06-12 01:08:00,
2013-06-11 15:13:00,88.9,65.4,30.06,NW,315,1.2,2.3,46,0.00,SCT,BKN,0.00,500.0,WeatherDisplay:10.37,2013-06-12 01:13:00,
2013-06-11 15:18:00,86.9,64.8,30.06,North,0,2.2,2.3,48,0.00,SCT,BKN,0.00,500.0,WeatherDisplay:10.37,2013-06-12 01:18:00,
2013-06-11 15:23:00,86.0,64.0,30.06,NE,45,1.4,2.3,48,0.00,SCT,BKN,0.00,250.0,WeatherDisplay:10.37,2013-06-12 01:23:00,
2013-06-11 15:28:00,85.1,64.4,30.03,NW,315,2.0,3.5,50,0.00,SCT,BKN,0.00,125.0,WeatherDisplay:10.37,2013-06-12 01:28:00,
2013-06-11 15:33:00,82.6,63.7,30.03,North,0,3.6,5.8,53,0.00,SCT,BKN,0.00,125.0,WeatherDisplay:10.37,2013-06-12 01:33:00,
2013-06-11 15:38:00,82.6,64.8,30.03,SSW,202,2.6,5.8,55,0.00,SCT,BKN,0.00,125.0,WeatherDisplay:10.37,2013-06-12 01:38:00,
2013-06-11 15:43:00,80.6,64.9,30.03,North,0,3.8,5.8,59,0.00,SCT,BKN,0.00,125.0,WeatherDisplay:10.37,2013-06-12 01:43:00,
2013-06-11 15:48:00,80.6,64.9,30.03,NE,45,0.0,2.0,59,0.00,SCT,BKN,0.00,0.0,WeatherDisplay:10.37,2013-06-12 01:48:00,
2013-06-11 15:53:00,79.9,65.7,30.03,North,0,2.2,3.5,62,0.00,SCT,BKN,0.00,0.0,WeatherDisplay:10.37,2013-06-12 01:53:00,
2013-06-11 15:58:00,79.3,65.6,30.03,North,0,2.9,3.5,63,0.00,SCT,BKN,0.00,0.0,WeatherDisplay:10.37,2013-06-12 01:58:00,
2013-06-11 16:03:00,79.0,65.3,30.03,WNW,292,2.0,4.6,63,0.00,SCT,BKN,0.00,0.0,WeatherDisplay:10.37,2013-06-12 02:03:00,
2013-06-11 16:08:00,78.8,65.6,30.03,NW,315,2.4,2.6,64,0.00,SCT,BKN,0.00,0.0,WeatherDisplay:10.37,2013-06-12 02:08:00,
2013-06-11 16:13:00,78.6,65.4,30.03,ENE,68,4.0,4.9,64,0.00,SCT,BKN,0.00,0.0,WeatherDisplay:10.37,2013-06-12 02:13:00,
2013-06-11 16:18:00,78.1,64.9,30.03,NNW,338,1.6,3.5,64,0.00,SCT,BKN,0.00,0.0,WeatherDisplay:10.37,2013-06-12 02:18:00,
2013-06-11 16:23:00,78.4,65.2,30.03,NNE,22,3.1,3.5,64,0.00,SCT,BKN,0.00,125.0,WeatherDisplay:10.37,2013-06-12 02:23:00,
2013-06-11 16:28:00,78.8,65.1,30.03,NE,45,1.6,2.3,63,0.00,SCT,BKN,0.00,0.0,WeatherDisplay:10.37,2013-06-12 02:28:00,
2013-06-11 16:33:00,79.7,66.4,30.03,NNE,22,2.4,2.4,64,0.00,SCT,BKN,0.00,125.0,WeatherDisplay:10.37,2013-06-12 02:33:00,
2013-06-11 16:38:00,80.1,66.3,30.03,West,270,1.4,3.8,63,0.00,SCT,BKN,0.00,125.0,WeatherDisplay:10.37,2013-06-12 02:38:00,
2013-06-11 16:43:00,81.1,67.3,30.03,North,0,0.9,2.2,63,0.00,SCT,BKN,0.00,125.0,WeatherDisplay:10.37,2013-06-12 02:43:00,
2013-06-11 16:48:00,80.8,66.1,30.03,SW,225,0.9,3.5,61,0.00,SCT,BKN,0.00,125.0,WeatherDisplay:10.37,2013-06-12 02:48:00,
2013-06-11 16:53:00,80.4,66.2,30.03,South,180,2.4,3.5,62,0.00,SCT,BKN,0.00,0.0,WeatherDisplay:10.37,2013-06-12 02:53:00,
2013-06-11 16:58:00,79.9,66.2,30.03,SW,225,1.6,3.8,63,0.00,SCT,BKN,0.00,0.0,WeatherDisplay:10.37,2013-06-12 02:58:00,
2013-06-11 17:03:00,79.5,66.3,30.03,North,0,1.2,2.3,64,0.00,SCT,BKN,0.00,0.0,WeatherDisplay:10.37,2013-06-12 03:03:00,
2013-06-11 17:08:00,79.3,65.6,30.03,ENE,68,2.4,4.6,63,0.00,SCT,BKN,0.00,0.0,WeatherDisplay:10.37,2013-06-12 03:08:00,
2013-06-11 17:13:00,79.2,65.9,30.03,NW,315,0.9,2.3,64,0.00,SCT,BKN,0.00,0.0,WeatherDisplay:10.37,2013-06-12 03:13:00,
2013-06-11 17:18:00,78.8,66.0,30.03,ESE,112,1.2,1.2,65,0.00,SCT,BKN,0.00,0.0,WeatherDisplay:10.37,2013-06-12 03:18:00,
2013-06-11 17:23:00,78.6,66.3,30.03,NNE,22,2.2,3.5,66,0.00,SCT,BKN,0.00,0.0,WeatherDisplay:10.37,2013-06-12 03:23:00,
2013-06-11 17:28:00,77.9,65.6,30.03,NE,45,1.6,2.3,66,0.00,SCT,BKN,0.00,0.0,WeatherDisplay:10.37,2013-06-12 03:28:00,
2013-06-11 17:33:00,77.0,65.6,30.03,ENE,68,2.0,2.3,68,0.00,SCT,BKN,0.00,0.0,WeatherDisplay:10.37,2013-06-12 03:33:00,
2013-06-11 17:38:00,76.1,65.6,30.03,NE,45,1.6,2.4,70,0.00,SCT,BKN,0.00,0.0,WeatherDisplay:10.37,2013-06-12 03:38:00,
2013-06-11 17:44:00,75.7,66.1,30.06,ENE,68,0.0,2.0,72,0.00,SCT,BKN,0.00,0.0,WeatherDisplay:10.37,2013-06-12 03:44:00,
2013-06-11 17:49:00,75.6,66.3,30.06,North,0,1.6,2.3,73,0.00,SCT,BKN,0.00,0.0,WeatherDisplay:10.37,2013-06-12 03:49:00,
2013-06-11 17:54:00,75.4,66.5,30.06,East,90,2.4,3.5,74,0.00,SCT,BKN,0.00,0.0,WeatherDisplay:10.37,2013-06-12 03:54:00,
2013-06-11 18:00:00,75.0,66.6,30.06,WSW,248,0.0,3.5,75,0.00,SCT,BKN,0.00,0.0,WeatherDisplay:10.37,2013-06-12 04:00:00,
2013-06-11 18:01:00,75.0,67.3,30.06,NNW,338,1.6,3.5,77,0.00,SCT,BKN,0.00,0.0,WeatherDisplay:10.37,2013-06-12 04:01:00,
2013-06-11 18:02:00,75.0,66.9,30.06,SW,225,0.0,2.3,76,0.00,SCT,BKN,0.00,0.0,WeatherDisplay:10.37,2013-06-12 04:02:00,
2013-06-11 18:07:00,75.0,66.9,30.06,North,0,1.4,3.3,76,0.00,SCT,BKN,0.00,0.0,WeatherDisplay:10.37,2013-06-12 04:07:00,
2013-06-11 18:12:00,75.2,66.7,30.06,NE,45,2.4,2.6,75,0.00,SCT,BKN,0.00,0.0,WeatherDisplay:10.37,2013-06-12 04:12:00,
2013-06-11 18:17:00,75.9,67.4,30.06,ENE,68,0.0,0.0,75,0.00,SCT,BKN,0.00,0.0,WeatherDisplay:10.37,2013-06-12 04:17:00,
2013-06-11 18:22:00,76.1,67.2,30.06,SSE,158,0.9,1.2,74,0.00,SCT,BKN,0.00,0.0,WeatherDisplay:10.37,2013-06-12 04:22:00,
2013-06-11 18:27:00,75.9,66.6,30.06,NE,45,2.6,4.6,73,0.00,SCT,BKN,0.00,0.0,WeatherDisplay:10.37,2013-06-12 04:27:00,
2013-06-11 18:32:00,75.6,65.9,30.06,NE,45,1.4,2.3,72,0.00,SCT,BKN,0.00,0.0,WeatherDisplay:10.37,2013-06-12 04:32:00,
2013-06-11 18:37:00,75.4,66.1,30.06,SSW,202,0.0,2.3,73,0.00,SCT,BKN,0.00,0.0,WeatherDisplay:10.37,2013-06-12 04:37:00,
2013-06-11 18:42:00,75.2,66.3,30.09,NE,45,1.2,2.3,74,0.00,SCT,BKN,0.00,0.0,WeatherDisplay:10.37,2013-06-12 04:42:00,
2013-06-11 18:47:00,75.0,66.2,30.09,NE,45,2.0,2.3,74,0.00,SCT,BKN,0.00,0.0,WeatherDisplay:10.37,2013-06-12 04:47:00,
2013-06-11 18:52:00,75.0,66.2,30.09,SW,225,0.9,2.3,74,0.00,SCT,BKN,0.00,0.0,WeatherDisplay:10.37,2013-06-12 04:52:00,
2013-06-11 18:57:00,75.0,65.4,30.06,ENE,68,1.6,3.5,72,0.00,SCT,BKN,0.00,0.0,WeatherDisplay:10.37,2013-06-12 04:57:00,
2013-06-11 19:02:00,75.0,65.4,30.06,West,270,0.9,1.2,72,0.00,SCT,BKN,0.00,0.0,WeatherDisplay:10.37,2013-06-12 05:02:00,
2013-06-11 19:07:00,74.8,65.6,30.06,ENE,68,2.0,2.3,73,0.00,SCT,BKN,0.00,0.0,WeatherDisplay:10.37,2013-06-12 05:07:00,
2013-06-11 19:12:00,74.8,65.6,30.03,ESE,112,0.0,0.0,73,0.00,SCT,BKN,0.00,0.0,WeatherDisplay:10.37,2013-06-12 05:12:00,
2013-06-11 19:17:00,74.8,66.0,30.03,NE,45,3.1,3.5,74,0.00,SCT,BKN,0.00,0.0,WeatherDisplay:10.37,2013-06-12 05:17:00,
2013-06-11 19:22:00,74.8,66.0,30.03,NE,45,2.0,3.5,74,0.00,SCT,BKN,0.00,0.0,WeatherDisplay:10.37,2013-06-12 05:22:00,
2013-06-11 19:27:00,74.8,66.0,30.06,NE,45,1.2,1.4,74,0.00,SCT,BKN,0.00,0.0,WeatherDisplay:10.37,2013-06-12 05:27:00,
2013-06-11 19:32:00,74.8,66.0,30.06,NE,45,3.1,4.7,74,0.00,SCT,BKN,0.00,0.0,WeatherDisplay:10.37,2013-06-12 05:32:00,
2013-06-11 19:37:00,74.7,65.8,30.06,SE,135,2.0,2.9,74,0.00,SCT,BKN,0.00,0.0,WeatherDisplay:10.37,2013-06-12 05:37:00,
2013-06-11 19:42:00,74.8,66.0,30.06,NW,315,3.8,5.8,74,0.00,SCT,BKN,0.00,0.0,WeatherDisplay:10.37,2013-06-12 05:42:00,
2013-06-11 19:47:00,74.8,66.0,30.06,East,90,0.9,3.5,74,0.00,SCT,BKN,0.00,0.0,WeatherDisplay:10.37,2013-06-12 05:47:00,
2013-06-11 19:52:00,74.8,66.0,30.06,North,0,3.1,5.8,74,0.00,SCT,BKN,0.00,0.0,WeatherDisplay:10.37,2013-06-12 05:52:00,
2013-06-11 19:57:00,74.8,66.0,30.03,East,90,1.4,2.4,74,0.00,SCT,BKN,0.00,0.0,WeatherDisplay:10.37,2013-06-12 05:57:00,
2013-06-11 20:02:00,74.8,66.0,30.03,ENE,68,0.0,0.0,74,0.00,SCT,BKN,0.00,0.0,WeatherDisplay:10.37,2013-06-12 06:02:00,
2013-06-11 20:07:00,74.8,66.0,30.03,SSW,202,0.9,1.2,74,0.00,SCT,BKN,0.00,0.0,WeatherDisplay:10.37,2013-06-12 06:07:00,
2013-06-11 20:12:00,74.7,66.6,30.06,NE,45,2.2,4.6,76,0.00,SCT,BKN,0.00,0.0,WeatherDisplay:10.37,2013-06-12 06:12:00,
2013-06-11 20:17:00,74.5,66.8,30.06,NE,45,3.1,4.6,77,0.00,SCT,BKN,0.00,0.0,WeatherDisplay:10.37,2013-06-12 06:17:00,
2013-06-11 20:22:00,74.1,66.8,30.06,WNW,292,2.4,3.5,78,0.00,SCT,BKN,0.00,0.0,WeatherDisplay:10.37,2013-06-12 06:22:00,
2013-06-11 20:27:00,73.8,67.2,30.06,NNW,338,1.2,1.4,80,0.00,SCT,BKN,0.00,0.0,WeatherDisplay:10.37,2013-06-12 06:27:00,
2013-06-11 20:32:00,73.4,67.2,30.06,NE,45,2.0,2.3,81,0.00,SCT,BKN,0.00,0.0,WeatherDisplay:10.37,2013-06-12 06:32:00,
2013-06-11 20:37:00,73.2,67.0,30.06,East,90,1.4,2.3,81,0.00,SCT,BKN,0.00,0.0,WeatherDisplay:10.37,2013-06-12 06:37:00,
2013-06-11 20:42:00,73.0,67.6,30.06,NE,45,0.0,2.3,83,0.00,SCT,BKN,0.00,0.0,WeatherDisplay:10.37,2013-06-12 06:42:00,
2013-06-11 20:47:00,73.0,68.3,30.06,North,0,2.2,5.8,85,0.00,SCT,BKN,0.00,0.0,WeatherDisplay:10.37,2013-06-12 06:47:00,
2013-06-11 20:52:00,72.9,68.1,30.06,ENE,68,0.0,2.3,85,0.00,SCT,BKN,0.00,0.0,WeatherDisplay:10.37,2013-06-12 06:52:00,
2013-06-11 20:57:00,72.7,67.9,30.06,ENE,68,1.2,1.2,85,0.00,SCT,BKN,0.00,0.0,WeatherDisplay:10.37,2013-06-12 06:57:00,
2013-06-11 21:02:00,72.5,67.4,30.06,East,90,1.2,2.3,84,0.00,SCT,BKN,0.00,0.0,WeatherDisplay:10.37,2013-06-12 07:02:00,
2013-06-11 21:07:00,72.3,68.6,30.06,NE,45,3.6,5.8,88,0.00,SCT,BKN,0.00,0.0,WeatherDisplay:10.37,2013-06-12 07:07:00,
2013-06-11 21:12:00,72.5,68.1,30.09,East,90,0.0,0.0,86,0.00,SCT,BKN,0.00,0.0,WeatherDisplay:10.37,2013-06-12 07:12:00,
2013-06-11 21:17:00,72.5,68.1,30.09,NE,45,0.9,1.6,86,0.00,SCT,BKN,0.00,0.0,WeatherDisplay:10.37,2013-06-12 07:17:00,
2013-06-11 21:22:00,72.1,68.1,30.09,ENE,68,1.4,2.3,87,0.00,SCT,BKN,0.00,0.0,WeatherDisplay:10.37,2013-06-12 07:22:00,
2013-06-11 21:27:00,72.1,68.4,30.06,East,90,0.0,0.0,88,0.05,RA,BKN,0.05,0.0,WeatherDisplay:10.37,2013-06-12 07:27:00,
2013-06-11 21:32:00,72.0,68.5,30.06,North,0,2.0,3.5,89,0.05,RA,BKN,0.05,0.0,WeatherDisplay:10.37,2013-06-12 07:32:00,
2013-06-11 21:37:00,71.8,68.7,30.06,East,90,0.0,2.3,90,0.05,SCT,BKN,0.05,0.0,WeatherDisplay:10.37,2013-06-12 07:37:00,
2013-06-11 21:42:00,71.8,68.7,30.09,ENE,68,0.0,3.5,90,0.05,SCT,BKN,0.05,0.0,WeatherDisplay:10.37,2013-06-12 07:42:00,
2013-06-11 21:47:00,71.8,69.0,30.09,NE,45,2.0,2.4,91,0.05,SCT,BKN,0.05,0.0,WeatherDisplay:10.37,2013-06-12 07:47:00,
2013-06-11 21:52:00,71.8,69.0,30.09,NE,45,1.6,3.5,91,0.05,SCT,BKN,0.05,0.0,WeatherDisplay:10.37,2013-06-12 07:52:00,
2013-06-11 21:57:00,71.6,68.8,30.09,NE,45,1.6,2.9,91,0.05,SCT,BKN,0.05,0.0,WeatherDisplay:10.37,2013-06-12 07:57:00,
2013-06-11 22:02:00,71.6,68.8,30.09,ENE,68,2.0,3.5,91,0.05,SCT,BKN,0.05,0.0,WeatherDisplay:10.37,2013-06-12 08:02:00,
2013-06-11 22:07:00,71.6,68.8,30.09,WNW,292,3.1,3.5,91,0.05,SCT,BKN,0.05,0.0,WeatherDisplay:10.37,2013-06-12 08:07:00,
2013-06-11 22:12:00,71.6,68.5,30.09,ENE,68,0.0,0.0,90,0.05,SCT,BKN,0.05,0.0,WeatherDisplay:10.37,2013-06-12 08:12:00,